Location: Andershausen
(51.8462°N, 9.8595°E)
Time: 23:21:56
(UTC+00:00)

COSMOS 2406 - Pass Details

Date: 18 November 2025
Orbit: 845 x 858 km, 71.0° (Epoch: 04 December)

Event Time Altitude Azimuth Distance (km) Brightness Sun altitude
Rises 18:06:08 0° 327° (NNW) 3,419 6.8 -24.4°
Reaches altitude 10° 18:08:37 10° 323° (NW) 2,480 6.1 -24.8°
Maximum altitude 18:14:10 57° 247° (WSW) 1,000 3.8 -25.6°
Enters shadow 18:19:02 14° 172° (S) 2,224 5.3 -26.4°
